• In United Kingdom
  • List of Countries
  • For 7 days
  • Water Temperature
  • Satellite Maps
  • Weather Map
  • Weather Widgets
  • user-avatar
    Login

    Hourly Weather Lubumbashi

    Today, 25 November, Saturday

    Time Temperature Precipitation Wind Pressure Humidity
    00:00 +22°C° 0 mm 5 mps 721 mmHg 19%
    01:00 +21°C° 0 mm 5 mps 721 mmHg 20%
    02:00 +20°C° 0 mm 5 mps 721 mmHg 22%
    03:00 +20°C° 0 mm 5 mps 721 mmHg 23%
    04:00 +19°C° 0 mm 5 mps 721 mmHg 24%
    05:00 +19°C° 0 mm 5 mps 721 mmHg 25%
    06:00 +20°C° 0 mm 5 mps 721 mmHg 24%
    07:00 +21°C° 0 mm 6 mps 722 mmHg 23%
    08:00 +22°C° 0 mm 7 mps 722 mmHg 22%
    09:00 +26°C° 0 mm 6 mps 722 mmHg 19%
    10:00 +28°C° 0 mm 6 mps 722 mmHg 16%
    11:00 +32°C° 0 mm 6 mps 722 mmHg 13%
    12:00 +33°C° 0 mm 5 mps 722 mmHg 12%
    13:00 +34°C° 0 mm 4 mps 721 mmHg 11%
    14:00 +36°C° 0 mm 4 mps 720 mmHg 10%
    15:00 +35°C° 0 mm 3 mps 720 mmHg 10%
    16:00 +35°C° 0 mm 3 mps 720 mmHg 11%
    17:00 +35°C° 0 mm 3 mps 720 mmHg 11%
    18:00 +33°C° 0 mm 3 mps 720 mmHg 12%
    19:00 +30°C° 0 mm 4 mps 720 mmHg 13%
    20:00 +28°C° 0 mm 4 mps 720 mmHg 15%
    21:00 +27°C° 0 mm 5 mps 721 mmHg 15%
    22:00 +26°C° 0 mm 5 mps 721 mmHg 15%
    23:00 +26°C° 0 mm 6 mps 722 mmHg 15%

    Tomorrow, 26 November, Sunday

    Time Temperature Precipitation Wind Pressure Humidity
    00:00 +24°C° 0 mm 6 mps 721 mmHg 16%
    01:00 +23°C° 0 mm 6 mps 721 mmHg 16%
    02:00 +23°C° 0 mm 6 mps 721 mmHg 17%
    03:00 +22°C° 0 mm 6 mps 721 mmHg 17%
    04:00 +22°C° 0 mm 6 mps 721 mmHg 18%
    05:00 +21°C° 0 mm 6 mps 721 mmHg 18%
    06:00 +22°C° 0 mm 6 mps 722 mmHg 17%
    07:00 +23°C° 0 mm 7 mps 722 mmHg 17%
    08:00 +24°C° 0 mm 8 mps 722 mmHg 16%
    09:00 +27°C° 0 mm 8 mps 723 mmHg 14%
    10:00 +30°C° 0 mm 7 mps 723 mmHg 13%
    11:00 +33°C° 0 mm 7 mps 723 mmHg 11%
    12:00 +35°C° 0 mm 7 mps 722 mmHg 10%
    13:00 +36°C° 0 mm 6 mps 721 mmHg 10%
    14:00 +38°C° 0 mm 6 mps 720 mmHg 9%
    15:00 +38°C° 0 mm 6 mps 720 mmHg 10%
    16:00 +36°C° 0 mm 6 mps 720 mmHg 10%
    17:00 +35°C° 0 mm 5 mps 719 mmHg 10%
    18:00 +33°C° 0 mm 6 mps 720 mmHg 11%
    19:00 +30°C° 0 mm 6 mps 720 mmHg 12%
    20:00 +28°C° 0 mm 6 mps 721 mmHg 13%
    21:00 +28°C° 0 mm 6 mps 721 mmHg 13%
    22:00 +27°C° 0 mm 7 mps 721 mmHg 14%
    23:00 +26°C° 0 mm 7 mps 721 mmHg 14%

    Day after tomorrow, 27 November, Monday

    Time Temperature Precipitation Wind Pressure Humidity
    00:00 +26°C° 0 mm 7 mps 721 mmHg 15%
    01:00 +24°C° 0 mm 7 mps 721 mmHg 16%
    02:00 +23°C° 0 mm 7 mps 721 mmHg 17%
    03:00 +23°C° 0 mm 6 mps 721 mmHg 18%
    04:00 +22°C° 0 mm 6 mps 720 mmHg 19%
    05:00 +22°C° 0 mm 6 mps 720 mmHg 20%
    06:00 +23°C° 0 mm 6 mps 721 mmHg 20%
    07:00 +23°C° 0 mm 7 mps 722 mmHg 19%
    08:00 +24°C° 0 mm 8 mps 722 mmHg 18%
    09:00 +28°C° 0 mm 8 mps 722 mmHg 17%
    10:00 +31°C° 0 mm 8 mps 723 mmHg 15%
    11:00 +33°C° 0 mm 8 mps 723 mmHg 13%
    12:00 +35°C° 0 mm 7 mps 722 mmHg 13%
    13:00 +36°C° 0 mm 6 mps 721 mmHg 12%
    14:00 +38°C° 0 mm 6 mps 720 mmHg 12%
    15:00 +36°C° 0 mm 6 mps 720 mmHg 12%
    16:00 +36°C° 0 mm 5 mps 719 mmHg 13%
    17:00 +35°C° 0 mm 5 mps 719 mmHg 13%
    18:00 +34°C° 0 mm 5 mps 720 mmHg 14%
    19:00 +32°C° 0 mm 5 mps 720 mmHg 16%
    20:00 +29°C° 0 mm 5 mps 721 mmHg 17%
    21:00 +28°C° 0 mm 6 mps 721 mmHg 17%
    22:00 +27°C° 0 mm 6 mps 721 mmHg 17%
    23:00 +27°C° 0 mm 7 mps 721 mmHg 17%

    28 November, Tuesday

    Time Temperature Precipitation Wind Pressure Humidity
    00:00 +26°C° 0 mm 7 mps 721 mmHg 17%
    01:00 +26°C° 0 mm 7 mps 720 mmHg 18%
    02:00 +24°C° 0 mm 7 mps 720 mmHg 18%
    03:00 +24°C° 0 mm 6 mps 720 mmHg 19%
    04:00 +23°C° 0 mm 6 mps 720 mmHg 20%
    05:00 +22°C° 0 mm 5 mps 720 mmHg 21%
    06:00 +23°C° 0 mm 6 mps 721 mmHg 21%
    07:00 +24°C° 0 mm 6 mps 721 mmHg 20%
    08:00 +26°C° 0 mm 7 mps 722 mmHg 20%
    09:00 +28°C° 0 mm 7 mps 722 mmHg 19%
    10:00 +32°C° 0 mm 6 mps 722 mmHg 18%
    11:00 +34°C° 0 mm 6 mps 722 mmHg 16%
    12:00 +36°C° 0 mm 6 mps 721 mmHg 16%
    13:00 +37°C° 0 mm 5 mps 720 mmHg 15%
    14:00 +39°C° 0 mm 5 mps 719 mmHg 15%
    15:00 +39°C° 0 mm 5 mps 719 mmHg 15%
    16:00 +37°C° 0 mm 5 mps 718 mmHg 16%
    17:00 +37°C° 0 mm 5 mps 718 mmHg 16%
    18:00 +35°C° 0 mm 5 mps 719 mmHg 18%
    19:00 +33°C° 0 mm 5 mps 719 mmHg 19%
    20:00 +30°C° 0 mm 6 mps 720 mmHg 21%
    21:00 +29°C° 0 mm 6 mps 720 mmHg 21%
    22:00 +29°C° 0 mm 7 mps 720 mmHg 22%
    23:00 +28°C° 0 mm 7 mps 720 mmHg 22%

    29 November, Wednesday

    Time Temperature Precipitation Wind Pressure Humidity
    00:00 +27°C° 0 mm 7 mps 720 mmHg 23%
    01:00 +27°C° 0 mm 7 mps 720 mmHg 24%
    02:00 +26°C° 0 mm 7 mps 720 mmHg 25%
    03:00 +24°C° 0 mm 6 mps 720 mmHg 25%
    04:00 +24°C° 0 mm 6 mps 720 mmHg 26%
    05:00 +23°C° 0 mm 5 mps 720 mmHg 26%
    06:00 +24°C° 0 mm 6 mps 721 mmHg 25%
    07:00 +26°C° 0 mm 7 mps 722 mmHg 24%
    08:00 +27°C° 0 mm 7 mps 722 mmHg 23%
    09:00 +29°C° 0 mm 7 mps 722 mmHg 21%
    10:00 +33°C° 0 mm 7 mps 722 mmHg 19%
    11:00 +35°C° 0 mm 7 mps 722 mmHg 17%
    12:00 +36°C° 0 mm 7 mps 721 mmHg 16%
    13:00 +39°C° 0 mm 6 mps 720 mmHg 15%
    14:00 +40°C° 0 mm 6 mps 719 mmHg 14%
    15:00 +40°C° 0 mm 6 mps 719 mmHg 14%
    16:00 +39°C° 0 mm 6 mps 719 mmHg 14%
    17:00 +39°C° 0 mm 6 mps 719 mmHg 15%
    18:00 +36°C° 0 mm 6 mps 719 mmHg 16%
    19:00 +34°C° 0 mm 6 mps 720 mmHg 18%
    20:00 +32°C° 0 mm 6 mps 720 mmHg 20%
    21:00 +30°C° 0 mm 7 mps 721 mmHg 21%
    22:00 +29°C° 0 mm 7 mps 721 mmHg 21%
    23:00 +28°C° 0 mm 8 mps 721 mmHg 22%

    30 November, Thursday

    Time Temperature Precipitation Wind Pressure Humidity
    00:00 +28°C° 0 mm 8 mps 720 mmHg 23%
    01:00 +27°C° 0 mm 8 mps 720 mmHg 23%
    02:00 +26°C° 0 mm 8 mps 720 mmHg 24%
    03:00 +26°C° 0 mm 7 mps 720 mmHg 25%
    04:00 +24°C° 0 mm 7 mps 720 mmHg 25%
    05:00 +23°C° 0 mm 7 mps 720 mmHg 25%
    06:00 +24°C° 0 mm 7 mps 721 mmHg 24%
    07:00 +24°C° 0 mm 8 mps 722 mmHg 22%
    08:00 +26°C° 0 mm 8 mps 722 mmHg 21%
    09:00 +29°C° 0 mm 8 mps 722 mmHg 18%
    10:00 +32°C° 0 mm 8 mps 722 mmHg 16%
    11:00 +35°C° 0 mm 8 mps 722 mmHg 14%
    12:00 +36°C° 0 mm 7 mps 721 mmHg 12%
    13:00 +38°C° 0 mm 7 mps 720 mmHg 11%
    14:00 +39°C° 0 mm 7 mps 720 mmHg 10%
    15:00 +39°C° 0 mm 7 mps 719 mmHg 10%
    16:00 +38°C° 0 mm 7 mps 719 mmHg 10%
    17:00 +36°C° 0 mm 6 mps 719 mmHg 10%
    18:00 +34°C° 0 mm 6 mps 719 mmHg 12%
    19:00 +32°C° 0 mm 6 mps 720 mmHg 13%
    20:00 +29°C° 0 mm 6 mps 720 mmHg 14%
    21:00 +28°C° 0 mm 6 mps 720 mmHg 15%
    22:00 +27°C° 0 mm 6 mps 720 mmHg 15%
    23:00 +26°C° 0 mm 6 mps 720 mmHg 16%
    Show more